Annapolis Naval Academy, MD

3:19 PM EDT on August 18, 2017 (GMT -0400)
Annapolis Naval Academy

Weather History for KNAK - November, 2012

Change the Weather History Date:

Tuesday, November 20, 2012

  Actual Average (KBWI) Record (KBWI)
Temperature  
Mean Temperature 50 °F -  
Max Temperature 54 °F 54 °F 79 °F (1942)
Min Temperature 45 °F 35 °F 22 °F (1951)
Degree Days  
Heating Degree Days 16    
Moisture  
Dew Point 43 °F    
Average Humidity 76    
Maximum Humidity 93    
Minimum Humidity 64    
Precipitation  
Precipitation 0.00 in - - ()
Sea Level Pressure  
Sea Level Pressure 30.16 in    
Wind  
Wind Speed 4 mph (NNE)    
Max Wind Speed 7 mph    
Max Gust Speed -    
Visibility 9 miles    
Events      
Averages and records for this station are not official NWS values.
T = Trace of Precipitation, MM = Missing Value Source: NWS Daily Summary

Daily Weather History Graph

Daily Weather History Graph

Search for Another Location

Airport or City:

Trip Planner

Search our weather history database for the weather conditions in past years. The results will help you decide how hot, cold, wet, or windy it might be!

Date:

Astronomy

Nov. 20, 2012 Rise Set
Actual Time 6:54 AM EST 4:48 PM EST
Civil Twilight 6:25 AM EST 5:17 PM EST
Nautical Twilight 5:53 AM EST 5:49 PM EST
Astronomical Twilight 5:21 AM EST 6:21 PM EST
Moon 12:29 PM EST (11/20) No Moon Set
Length of Visible Light 10h 51m
Length of Day
9h 53m
Waxing Crescent, 51% of the Moon is Illuminated
Nov 20
Waxing Crescent
Nov 28
Full
Dec 6
Last Quarter
Dec 13
New
Dec 20
First Quarter

Hourly Weather History & Observations

Time (EST) Temp. Windchill Dew Point Humidity Pressure Visibility Wind Dir Wind Speed Gust Speed Precip Events Conditions
12:25 AM 50.0 °F - 41.0 °F 71% 30.21 in 10.0 mi North 5.8 mph - N/A   Overcast
12:54 AM 50.0 °F - 41.0 °F 71% 30.22 in 10.0 mi North 4.6 mph - N/A   Overcast
1:54 AM 50.0 °F - 42.1 °F 74% 30.20 in 10.0 mi NNE 4.6 mph - N/A   Overcast
2:54 AM 50.0 °F - 42.1 °F 74% 30.20 in 10.0 mi NNE 3.5 mph - N/A   Overcast
3:54 AM 50.0 °F - 42.1 °F 74% 30.19 in 10.0 mi Variable 4.6 mph - N/A   Overcast
4:54 AM 48.9 °F - 42.1 °F 77% 30.19 in 10.0 mi NNE 5.8 mph - N/A   Overcast
5:54 AM 48.9 °F - 42.1 °F 77% 30.19 in 9.0 mi Calm Calm - N/A   Overcast
6:54 AM 48.9 °F - 42.1 °F 77% 30.19 in 9.0 mi Calm Calm - N/A   Mostly Cloudy
7:54 AM 48.9 °F - 43.0 °F 80% 30.20 in 7.0 mi NNE 3.5 mph - N/A   Clear
8:54 AM 50.0 °F - 43.0 °F 77% 30.19 in 9.0 mi Variable 3.5 mph - N/A   Partly Cloudy
9:11 AM 50.0 °F - 43.0 °F 77% 30.19 in 9.0 mi NE 6.9 mph - N/A   Mostly Cloudy
9:54 AM 50.0 °F - 43.0 °F 77% 30.19 in 9.0 mi NE 6.9 mph - N/A   Overcast
10:12 AM 50.0 °F - 43.0 °F 77% 30.18 in 10.0 mi East 3.5 mph - N/A   Scattered Clouds
10:54 AM 51.1 °F - 43.0 °F 74% 30.18 in 9.0 mi NE 3.5 mph - N/A   Clear
11:54 AM 53.1 °F - 42.1 °F 66% 30.16 in 9.0 mi Calm Calm - N/A   Clear
12:54 PM 52.0 °F - 45.0 °F 77% 30.13 in 8.0 mi SE 4.6 mph - N/A   Clear
1:34 PM 54.0 °F - 42.1 °F 64% 30.12 in 10.0 mi North 5.8 mph - N/A   Mostly Cloudy
1:47 PM 53.1 °F - 42.1 °F 66% 30.12 in 10.0 mi NE 5.8 mph - N/A   Scattered Clouds
1:54 PM 53.1 °F - 42.1 °F 66% 30.12 in 10.0 mi NE 5.8 mph - N/A   Partly Cloudy
2:54 PM 52.0 °F - 42.1 °F 69% 30.11 in 10.0 mi ENE 4.6 mph - N/A   Clear
3:54 PM 52.0 °F - 42.1 °F 69% 30.12 in 10.0 mi NNE 3.5 mph - N/A   Clear
4:54 PM 51.1 °F - 42.1 °F 71% 30.11 in 10.0 mi Calm Calm - N/A   Clear
5:54 PM 52.0 °F - 42.1 °F 69% 30.12 in 10.0 mi Calm Calm - N/A   Clear
6:54 PM 51.1 °F - 44.1 °F 77% 30.14 in 9.0 mi Calm Calm - N/A   Clear
7:54 PM 48.0 °F - 43.0 °F 83% 30.14 in 8.0 mi Calm Calm - N/A   Clear
8:54 PM 46.9 °F - 43.0 °F 86% 30.14 in 7.0 mi Calm Calm - N/A   Clear
9:54 PM 45.0 °F 43.5 °F 42.1 °F 90% 30.14 in 5.0 mi NW 3.5 mph - N/A   Clear
10:54 PM 46.0 °F 44.8 °F 43.0 °F 89% 30.16 in 5.0 mi NW 3.5 mph - N/A   Clear
11:54 PM 45.0 °F 43.5 °F 43.0 °F 93% 30.15 in 4.0 mi NW 3.5 mph - N/A   Clear